Volver al catálogo

NOAA 16 DEB

ActivoSSO
NORAD 41413·DEBRIS·🇺🇸 United States

Lanzado Sep 21, 2000 desde Vandenberg Space Force Base

Loading…

Próximos Pases (próximas 24 horas)

TLE

ActualizadoSource: Space-Track

Época: Sep 14, 2026, 09:56 UTC

1 41413U 00055KS  26257.41438704  .00002851  00000-0  10730-2 0  9995
2 41413  98.6726 322.9058 0018107 236.5859 123.3593 14.32177142547001

Sigue NOAA 16 DEB en tiempo real con AllMySat

Download on the App Store